[[{"header":{"parameterUnit":"m.s-1","parameterCategory":1,"la1":30.2991,"la2":30.254,"lo1":-89.0895,"lo2":-89.0444,"dy":0.0017,"dx":0.0017,"nx":28,"ny":28,"refTime":"2025-08-07T21:00:00:Z","depth":0,"parameterNumber":2,"parameterNumberName":"U-component_of_WINDS"},"data":[0,0,0,0,0,0,0,0,0,0,0,0,0,0,0,0,0,0,0,0,0,0,0,0,0,0,0,0,0,0,0,0,0,0,0,0,0,0,0,0,0,0,0,0,0,0,0,0,0,0,0,0,0,0,0,0,0,0,-4.3859,-4.3858,0,-4.384,-4.384,-4.3839,-4.3659,-4.3654,-4.365,-4.3646,-4.363,-4.3634,-4.3637,0,0,0,0,0,0,0,0,0,0,0,0,0,-4.3741,-4.3744,-4.3859,-4.3858,-4.3858,-4.384,-4.384,-4.3839,-4.366,-4.3654,-4.3649,-4.3644,-4.3629,-4.3633,-4.3638,0,0,0,0,0,0,0,0,0,0,0,0,0,-4.3764,-4.3745,-4.3859,-4.3766,-4.3758,-4.384,-4.384,-4.3839,-4.3661,-4.3654,-4.3647,-4.3641,-4.3627,-4.3633,-4.3638,-4.3809,0,0,-4.3656,-4.3658,0,0,0,0,0,0,0,0,-4.3763,-4.3769,-4.378,-4.3773,-4.3763,-4.3745,-4.3792,-4.3829,-4.3663,-4.3698,-4.3645,-4.3638,-4.3674,-4.3675,-4.3687,-4.3808,-4.3808,-4.3656,-4.366,-4.3662,-4.3664,0,0,0,0,0,0,0,-4.3762,-4.3768,-4.3851,-4.378,-4.377,-4.3726,-4.3722,-4.3798,-4.3724,-4.3694,-4.3681,-4.3681,-4.3668,-4.3682,-4.3685,-4.3807,-4.3656,-4.3661,-4.3665,-4.3667,-4.4066,-4.4072,0,0,0,0,0,0,-4.3773,-4.3768,-4.3852,-4.3851,-4.3746,-4.3734,-4.3729,-4.3758,-4.3723,-4.3711,-4.3687,-4.3673,-4.3675,-4.3679,-4.3684,-4.3879,-4.3662,-4.3668,-4.3671,-4.4059,-4.4067,-4.4075,0,0,0,0,0,0,-4.3771,-4.3782,-4.3852,-4.3806,-4.3811,-4.3743,-4.3776,-4.3761,-4.3774,-4.3717,-4.3703,-4.3714,-4.367,-4.3676,-4.3778,-4.3876,-4.367,-4.3675,-4.405,-4.4061,-4.4071,-4.4273,0,0,0,0,0,0,-4.3768,-4.3782,-4.3846,-4.3809,-4.3815,-4.3948,-4.3782,-4.3765,-4.3784,-4.3765,-4.3739,-4.3729,-4.3665,-4.3771,-4.3784,-4.388,-4.368,-4.4041,-4.4055,-4.4068,-4.4257,-4.429,-4.4317,0,0,0,0,0,-4.3764,-4.3905,-4.385,-4.3861,-4.3893,-4.3953,-4.3957,-4.388,-4.3793,-4.3856,-4.3819,-4.3729,-4.3864,-4.3783,-4.3796,-4.3896,-4.4034,-4.4051,-4.4067,-4.4244,-4.4283,-4.4316,0,0,0,0,0,0,-4.3957,-4.3898,-4.3837,-4.3969,-4.3968,-4.3923,-4.4001,-4.3925,-4.3949,-4.393,-4.3835,-4.3831,-4.3948,-4.3932,-4.3843,-4.4058,-4.3933,-4.3953,-4.4064,-4.41,-4.413,-4.413,-4.3684,0,0,0,0,0,-4.4015,-4.4068,-4.4014,-4.4136,-4.4138,-4.4071,-4.4094,-4.4035,-4.403,-4.4028,-4.3999,-4.3998,-4.404,-4.4069,-4.4105,-4.4255,-4.4246,-4.433,-4.4359,-4.4384,-4.4402,-4.4478,-4.4514,-4.4128,-4.4128,-4.4128,0,0,-4.4135,-4.4109,-4.4149,-4.4174,-4.4166,-4.4223,-4.4071,-4.4139,-4.418,-4.4039,-4.4133,-4.4112,-4.4105,-4.4231,-4.4286,-4.4222,-4.4506,-4.4405,-4.4425,-4.4429,-4.4498,-4.4535,-4.4567,-4.4139,-4.4137,-4.4135,0,0,-4.4383,-4.437,-4.4468,-4.4463,-4.4451,-4.4404,-4.4429,-4.4395,-4.4375,-4.4468,-4.4362,-4.4411,-4.4486,-4.4484,-4.4493,-4.4739,-4.4657,-4.4754,-4.4909,-4.4984,-4.5014,-4.5041,-4.5127,-4.5159,-4.4772,-4.4772,-4.4773,0,-4.4534,-4.4615,-4.4529,-4.4603,-4.4617,-4.449,-4.4589,-4.4588,-4.459,-4.4603,-4.4531,-4.462,-4.4607,-4.473,-4.479,-4.4802,-4.4826,-4.4755,-4.5017,-4.5042,-4.5066,-4.5147,-4.518,-4.4784,-4.4783,-4.4781,-4.478,0,-4.48,-4.4858,-4.494,-4.4942,-4.4965,-4.5052,-4.4979,-4.5013,-4.4952,-4.4914,-4.5009,-4.4988,-4.5016,-4.5042,-4.4984,-4.5157,-4.5117,-4.5033,-4.4906,-4.5116,-4.519,-4.522,-4.4801,-4.4796,-4.4793,-4.479,0,0,-4.5169,-4.5121,-4.5152,-4.5151,-4.5128,-4.5172,-4.5253,-4.5278,-4.5308,-4.5315,-4.5379,-4.5444,-4.5365,-4.5376,-4.5317,-4.5383,-4.5577,-4.529,-4.5288,-4.5343,-4.5765,-4.5827,-4.5864,-4.5523,-4.5529,-4.5533,-4.5764,0,-4.5405,-4.5538,-4.5463,-4.5607,-4.5659,-4.5539,-4.5609,-4.5603,-4.5569,-4.5609,-4.5571,-4.5618,-4.5512,-4.5517,-4.5578,-4.5541,-4.566,-4.5523,-4.5582,-4.5585,-4.5585,-4.5903,-4.5969,-4.6189,-4.5793,-4.5798,-4.5802,0,-4.5699,-4.5714,-4.5863,-4.5829,-4.5847,-4.5912,-4.5928,-4.5968,-4.5959,-4.5929,-4.5941,-4.5865,-4.5942,-4.5817,-4.5921,-4.583,-4.585,-4.5836,-4.5842,-4.5843,-4.5705,-4.5911,-4.6257,-4.629,-4.5847,-4.5843,-4.584,0,-4.595,-4.6008,-4.6104,-4.6107,-4.607,-4.6118,-4.6105,-4.6089,-4.6108,-4.6124,-4.6135,-4.6161,-4.6174,-4.6196,-4.6129,-4.6044,-4.6242,-4.6112,-4.6219,-4.6221,-4.6264,-4.6262,-4.6617,-4.6281,-4.6281,-4.628,-4.6279,0,-4.622,-4.6316,-4.6216,-4.6275,-4.6378,-4.6291,-4.6396,-4.637,-4.6357,-4.6409,-4.6308,-4.6359,-4.6268,-4.6311,-4.626,-4.6353,-4.636,-4.6338,-4.6323,-4.6346,-4.6349,-4.6357,-4.6339,-4.6289,-4.6287,-4.6285,-4.6284,0,-4.6518,-4.6455,-4.6551,-4.6507,-4.6498,-4.6576,-4.6539,-4.6592,-4.6551,-4.6618,-4.6629,-4.6565,-4.661,-4.6545,-4.6584,-4.6549,-4.6677,-4.6639,-4.6679,-4.6667,-4.6777,-4.6767,-4.7147,-4.7192,-4.6831,-4.6834,-4.6837,0,-4.6693,-4.6763,-4.6727,-4.6753,-4.6745,-4.679,-4.6809,-4.6727,-4.675,-4.6745,-4.6799,-4.6834,-4.6858,-4.6935,-4.6892,-4.6921,-4.6882,-4.7014,-4.6886,-4.6907,-4.6882,-4.6878,-4.6883,-4.704,-4.7044,-4.7048,-4.705,0,-4.7012,-4.6976,-4.7006,-4.7026,-4.7051,-4.7063,-4.7067,-4.7095,-4.7008,-4.7041,-4.7084,-4.7102,-4.714,-4.7177,-4.7194,-4.7181,-4.7102,-4.7091,-4.7117,-4.714,-4.7159,-4.7148,-4.6748,-4.7082,-4.7079,-4.7077,-4.7075,-4.7074,-4.7251,-4.7307,-4.7289,-4.7326,-4.732,-4.7326,-4.7373,-4.7337,-4.7371,-4.7394,-4.7344,-4.7399,-4.7387,-4.7402,-4.7398,-4.7441,-4.7383,-4.7422,-4.7431,-4.7441,-4.7457,-4.7155,-4.7444,-4.7443,-4.7442,-4.7441,-4.7441,0,-4.7562,-4.7544,-4.7579,-4.7587,-4.7616,-4.7537,-4.7538,-4.7567,-4.7617,-4.7612,-4.7637,-4.7686,-4.7721,-4.7681,-4.7708,-4.775,-4.7714,-4.776,-4.7755,-4.7753,-4.7508,-4.7482,-4.7788,-4.7788,-4.7788,-4.7788,-4.7788,-4.7788,-4.7727,-4.7816,-4.7779,-4.7864,-4.7846,-4.7897,-4.7904,-4.791,-4.7905,-4.7963,-4.7991,-4.7964,-4.7945,-4.797,-4.7999,-4.7986,-4.8,-4.8059,-4.8034,-4.7805,-4.7771,-4.7738,-4.7713,-4.8063,-4.8063,-4.8274,-4.8276,-4.8278]},{"header":{"parameterUnit":"m.s-1","parameterCategory":1,"la1":30.2991,"la2":30.254,"lo1":-89.0895,"lo2":-89.0444,"dy":0.0017,"dx":0.0017,"nx":28,"ny":28,"refTime":"2025-08-07T21:00:00:Z","depth":0,"parameterNumber":3,"parameterNumberName":"V-component_of_WINDS"},"data":[0,0,0,0,0,0,0,0,0,0,0,0,0,0,0,0,0,0,0,0,0,0,0,0,0,0,0,0,0,0,0,0,0,0,0,0,0,0,0,0,0,0,0,0,0,0,0,0,0,0,0,0,0,0,0,0,0,0,-1.1778,-1.1778,0,-1.1838,-1.1839,-1.1839,-1.1886,-1.1886,-1.1887,-1.1887,-1.1948,-1.1949,-1.195,0,0,0,0,0,0,0,0,0,0,0,0,0,-1.17,-1.1701,-1.1777,-1.1778,-1.1779,-1.1838,-1.1839,-1.1839,-1.1886,-1.1886,-1.1887,-1.1887,-1.1947,-1.1949,-1.195,0,0,0,0,0,0,0,0,0,0,0,0,0,-1.1744,-1.1702,-1.1777,-1.1809,-1.1813,-1.1838,-1.1839,-1.184,-1.1886,-1.1886,-1.1887,-1.1887,-1.1947,-1.1948,-1.195,-1.1948,0,0,-1.1956,-1.1956,0,0,0,0,0,0,0,0,-1.1742,-1.1747,-1.1804,-1.1807,-1.1811,-1.1855,-1.1834,-1.1876,-1.1885,-1.1858,-1.1887,-1.1888,-1.1916,-1.192,-1.193,-1.1951,-1.1953,-1.1956,-1.1957,-1.1958,-1.1958,0,0,0,0,0,0,0,-1.1739,-1.1745,-1.1801,-1.1805,-1.1809,-1.182,-1.1827,-1.1842,-1.1882,-1.186,-1.1864,-1.187,-1.1918,-1.1928,-1.1932,-1.1954,-1.1956,-1.1957,-1.1959,-1.1959,-1.1974,-1.1973,0,0,0,0,0,0,-1.1731,-1.1742,-1.1799,-1.1803,-1.1777,-1.1821,-1.1828,-1.184,-1.1882,-1.189,-1.187,-1.1872,-1.1925,-1.193,-1.1934,-1.1933,-1.1958,-1.1959,-1.196,-1.1975,-1.1974,-1.1973,0,0,0,0,0,0,-1.1729,-1.1736,-1.1797,-1.1774,-1.1782,-1.1821,-1.1834,-1.1841,-1.1851,-1.189,-1.1897,-1.1873,-1.1926,-1.1932,-1.1944,-1.1936,-1.196,-1.1962,-1.1976,-1.1975,-1.1974,-1.1932,0,0,0,0,0,0,-1.1727,-1.1735,-1.1735,-1.1773,-1.1783,-1.1806,-1.1834,-1.1842,-1.1854,-1.1858,-1.1894,-1.1901,-1.1927,-1.1941,-1.1946,-1.1939,-1.1963,-1.1976,-1.1975,-1.1974,-1.1934,-1.1929,-1.1925,0,0,0,0,0,-1.1724,-1.1721,-1.1735,-1.1741,-1.1784,-1.1806,-1.1811,-1.1841,-1.1854,-1.1854,-1.1878,-1.19,-1.1936,-1.1942,-1.1948,-1.1941,-1.1977,-1.1976,-1.1974,-1.1936,-1.193,-1.1926,0,0,0,0,0,0,-1.168,-1.1726,-1.1742,-1.1752,-1.1774,-1.1813,-1.1814,-1.1835,-1.1854,-1.1857,-1.1893,-1.19,-1.1908,-1.1926,-1.1932,-1.194,-1.1959,-1.1959,-1.1928,-1.1923,-1.1919,-1.1914,-1.1965,0,0,0,0,0,-1.1672,-1.1686,-1.1725,-1.173,-1.174,-1.1775,-1.1786,-1.1807,-1.1831,-1.1841,-1.1866,-1.1889,-1.1905,-1.1916,-1.1933,-1.1937,-1.1945,-1.1935,-1.1931,-1.1927,-1.1926,-1.1928,-1.1924,-1.1968,-1.1968,-1.1968,0,0,-1.1655,-1.1681,-1.1688,-1.1722,-1.1742,-1.1754,-1.1783,-1.1796,-1.1805,-1.1843,-1.1856,-1.1875,-1.1902,-1.191,-1.1915,-1.1925,-1.1916,-1.1925,-1.1922,-1.1923,-1.1926,-1.1922,-1.1918,-1.1967,-1.1967,-1.1968,0,0,-1.1629,-1.1652,-1.1657,-1.1676,-1.1706,-1.1729,-1.173,-1.1766,-1.178,-1.1794,-1.1822,-1.1833,-1.1861,-1.1879,-1.1892,-1.1872,-1.1892,-1.1877,-1.1854,-1.1856,-1.1852,-1.1849,-1.1841,-1.1837,-1.1876,-1.1876,-1.1875,0,-1.1604,-1.1625,-1.1657,-1.1668,-1.1681,-1.1716,-1.1721,-1.1738,-1.1772,-1.1779,-1.1791,-1.1826,-1.1847,-1.1858,-1.1853,-1.1863,-1.1864,-1.1872,-1.185,-1.1847,-1.1845,-1.1837,-1.1834,-1.1873,-1.1874,-1.1874,-1.1874,0,-1.1591,-1.1605,-1.1606,-1.1637,-1.1651,-1.1658,-1.1691,-1.1701,-1.172,-1.1741,-1.1754,-1.178,-1.1803,-1.1807,-1.1827,-1.1821,-1.1826,-1.1843,-1.1863,-1.1838,-1.1831,-1.1829,-1.187,-1.1871,-1.1872,-1.1872,0,0,-1.1541,-1.1589,-1.1589,-1.1603,-1.1638,-1.1649,-1.1657,-1.168,-1.1686,-1.1708,-1.1715,-1.1738,-1.1753,-1.1768,-1.1789,-1.179,-1.1771,-1.1807,-1.1808,-1.1798,-1.1765,-1.1751,-1.1747,-1.1785,-1.1785,-1.1784,-1.1762,0,-1.152,-1.1538,-1.1567,-1.1575,-1.1587,-1.162,-1.1627,-1.1649,-1.1669,-1.1681,-1.1703,-1.1718,-1.1738,-1.1747,-1.175,-1.1773,-1.1764,-1.1775,-1.1791,-1.1791,-1.1782,-1.1744,-1.173,-1.1707,-1.176,-1.1759,-1.1759,0,-1.1498,-1.1518,-1.1527,-1.156,-1.1566,-1.1572,-1.1594,-1.1606,-1.1631,-1.1645,-1.166,-1.1684,-1.1693,-1.1712,-1.1725,-1.1731,-1.1739,-1.1752,-1.1751,-1.1753,-1.1773,-1.1743,-1.1701,-1.1697,-1.1755,-1.1756,-1.1756,0,-1.1459,-1.1488,-1.1496,-1.1508,-1.1546,-1.1549,-1.1565,-1.1591,-1.1602,-1.1621,-1.1628,-1.1648,-1.1658,-1.1672,-1.17,-1.1711,-1.1709,-1.173,-1.1721,-1.172,-1.1718,-1.1718,-1.1675,-1.1725,-1.1725,-1.1725,-1.1725,0,-1.1432,-1.1436,-1.1479,-1.1484,-1.1489,-1.1522,-1.1526,-1.1545,-1.1567,-1.1575,-1.1605,-1.1613,-1.1649,-1.166,-1.1682,-1.1689,-1.1694,-1.1705,-1.171,-1.1701,-1.17,-1.1707,-1.1709,-1.1724,-1.1725,-1.1725,-1.1725,0,-1.1389,-1.1418,-1.1429,-1.1464,-1.1473,-1.1475,-1.1505,-1.1511,-1.1532,-1.1543,-1.1547,-1.1581,-1.1596,-1.1625,-1.1648,-1.1662,-1.1663,-1.1674,-1.1655,-1.1658,-1.1646,-1.1647,-1.1606,-1.1602,-1.1655,-1.1654,-1.1654,0,-1.1369,-1.1373,-1.1408,-1.1416,-1.1431,-1.1444,-1.1455,-1.1487,-1.1497,-1.1525,-1.1527,-1.1544,-1.1559,-1.1581,-1.1607,-1.1625,-1.1635,-1.162,-1.1638,-1.1628,-1.1633,-1.1632,-1.1632,-1.1615,-1.1614,-1.1614,-1.1613,0,-1.1331,-1.1345,-1.136,-1.138,-1.1392,-1.1409,-1.1428,-1.1432,-1.1468,-1.1478,-1.1494,-1.1505,-1.1529,-1.1545,-1.1566,-1.1582,-1.1603,-1.1607,-1.1606,-1.1597,-1.1585,-1.159,-1.1643,-1.1608,-1.1609,-1.1609,-1.1609,-1.161,-1.1298,-1.1303,-1.1328,-1.1343,-1.136,-1.1376,-1.1383,-1.1405,-1.1419,-1.144,-1.1458,-1.1471,-1.1495,-1.1525,-1.1539,-1.155,-1.156,-1.1558,-1.1558,-1.1556,-1.1552,-1.1584,-1.1554,-1.1554,-1.1554,-1.1555,-1.1555,0,-1.1261,-1.1278,-1.1292,-1.1317,-1.1328,-1.1348,-1.1369,-1.1377,-1.1389,-1.1409,-1.1423,-1.144,-1.1455,-1.1482,-1.15,-1.1503,-1.1513,-1.1506,-1.1506,-1.1509,-1.1543,-1.1542,-1.1498,-1.1498,-1.1498,-1.1498,-1.1498,-1.1498,-1.1242,-1.125,-1.1266,-1.1282,-1.13,-1.1313,-1.1324,-1.1338,-1.1354,-1.1372,-1.1385,-1.1402,-1.1424,-1.1444,-1.1458,-1.1466,-1.147,-1.146,-1.147,-1.1501,-1.1507,-1.1512,-1.1511,-1.1461,-1.1461,-1.1435,-1.1435,-1.1435]}]]